Tracking 35331 objects as of 14-Sep-2026
HD Live streaming from Space Station
objects crossing your sky now

SL-3 R/B


SL-3 R/B is no longer on orbit


NORAD ID: 3305
Int'l Code: 1968-054B
Launch date: June 26, 1968
Source: Commonwealth of Independent States (former USSR) (CIS)
Launch site: PLESETSK MISSILE AND SPACE COMPLEX (PKMTR)
Decay date: 1968-07-04

Note: This is a ROCKET BODY
Your satellite tracking list
Your tracking list is empty




NASA's NSSDC Master Catalog

Two Line Element Set (TLE):
1 03305U 68054  B 68186.06072212  .05885542 +00000-0 +00000-0 0  9990
2 03305 072.7932 064.7541 0007838 307.0763 052.9652 16.39765740001235
Source of the keplerian elements: AFSPC